Regional Weather Roundup
Issued by NWS

Home | Current Version | Previous Version | Graphics & Text | Print | Product List | Glossary On
Versions: 1 2 3 4 5 6 7 8 9 10 11 12 13 14 15 16 17 18 19 20 21 22 23 24 25 26 27 28 29 30 31 32 33 34 35 36 37 38 39 40 41 42 43 44 45 46 47 48 49 50
999
ASUS44 KLIX 270501
RWRLA
LOUISIANA WEATHER ROUNDUP
NATIONAL WEATHER SERVICE NEW ORLEANS LA
1100 PM CST WED NOV 26 2014

NOTE: "FAIR" INDICATES FEW OR NO CLOUDS BELOW 12,000 FEET WITH NO
      SIGNIFICANT WEATHER AND/OR OBSTRUCTIONS TO VISIBILITY.
      SKY/WX - SKY CONDITION AND SIGNIFICANT WEATHER.
      TMP - AIR TEMPERATURE.    DP   - DEWPOINT TEMPERATURE.
      RH  - RELATIVE HUMIDITY.  PRES - PRESSURE.
      HX  - HEAT INDEX.         WCI  - WIND CHILL INDEX.

*  THESE STATIONS ARE NOT NWS OR FAA STATIONS AND ARE NOT UNDER
   NWS QUALITY CONTROL.

LAZ040-048-061>063-065-066-069-270600-
SOUTHEAST LOUISIANA

CITY           SKY/WX    TMP DP  RH WIND       PRES   REMARKS
N.O. AUDUBON     N/A     56  50  82 MISG        N/A
N.O. INTL ARPT CLEAR     56  48  74 W13       30.27R
N.O. LAKEFRONT CLEAR     59  49  69 W17       30.26R
N.O. DOWNTOWN* FAIR      55  45  67 SW5       30.27S
SLIDELL        CLEAR     56  48  74 VRB3      30.24R
BATON ROUGE    CLEAR     51  44  77 W5        30.26R
BOOTHVILLE     CLEAR     62  52  69 W12       30.27S
BELLE CHASSE   CLEAR     56  48  74 W9        30.27R
BOGALUSA*        N/A     50  40  69 CALM      30.25R
NEW ROADS*     NOT AVBL
GONZALES*      NOT AVBL
HAMMOND*       NOT AVBL
HOUMA*         CLEAR     53  51  94 W3        30.28R
PORT FOURCHON* CLEAR     63  54  72 W12       30.31S

$$

LAZ041-044-053-054-270600-
SOUTHWEST LOUISIANA

CITY           SKY/WX    TMP DP  RH WIND       PRES   REMARKS
LAKE CHARLES   CLEAR     56  45  66 W6        30.29R
LAFAYETTE      CLEAR     54  48  80 W6        30.28R
PATTERSON      CLEAR     57  52  82 W13       30.30S
SALT POINT       N/A     63  56  78 W7        30.27S
NEW IBERIA     CLEAR     56  48  74 W6        30.29R
CHENAULT AIRPK CLEAR     56  45  66 W5        30.30R

$$

LAZ027-028-270600-
CENTRAL LOUISIANA

CITY           SKY/WX    TMP DP  RH WIND       PRES   REMARKS
FORT POLK      CLEAR     50  41  72 N10       30.30R
ALEXANDRIA INT CLEAR     47  41  80 NW5       30.29R
ALEXANDRIA     CLEAR     47  39  74 NW3       30.29R

$$

LAZ001-002-270600-
NORTHWEST LOUISIANA

CITY           SKY/WX    TMP DP  RH WIND       PRES   REMARKS
SHREVEPORT     CLEAR     48  35  60 NW6       30.31R
BARKSDALE AFB  CLEAR     45  32  61 NW5       30.32R
DTN SHREVEPORT CLEAR     49  32  52 NW5       30.32R

$$

LAZ014-016-270600-
NORTHEAST LOUISIANA

CITY           SKY/WX    TMP DP  RH WIND       PRES   REMARKS
MONROE         CLEAR     47  35  63 NW7       30.29R
TALLULAH       CLEAR     49  35  58 NW5       30.25S

$$




USA.gov is the U.S. government's official web portal to all federal, state and local government web resources and services.